Location: ?????
(37.9705°N, 23.7295°E)
Time: 22:31:49
(UTC+00:00)

Daily predictions for brighter satellites

Satellite Brightness Start Highest point End
(mag) Time Altitude Azimuth Time Altitude Azimuth Time Altitude Azimuth
Cosmos 1356 3.8 15:56:23 10° SSW 15:59:41 65° W 16:03:01 10° N
NOAA 6 4.1 15:55:24 10° SSE 16:00:31 86° ENE 16:05:40 10° NNW
FALCON 9 DEB 3.4 16:02:37 10° NW 16:05:56 69° SW 16:09:14 10° SE
PAYLOAD B 4.4 16:00:45 10° SSE 16:06:05 53° ENE 16:11:24 10° N
Meteor 1-24 Rocket 4.3 16:02:29 10° SSE 16:07:34 34° E 16:12:31 10° NNE
SL-8 Rocket 4.1 16:01:43 10° N 16:07:57 57° E 16:14:08 10° SSE
Cosmos 972 Rocket 4.1 16:05:26 10° S 16:10:43 58° ESE 16:15:38 10° NNE
COSMOS 2406 3.3 16:06:45 10° NNW 16:12:19 55° ENE 16:17:51 10° SE
SMAP 3.7 16:08:32 10° S 16:13:07 62° W 16:17:45 10° NNW
COSMO-SKYMED 1 2.7 16:11:21 10° NNE 16:15:36 52° E 16:19:50 10° S
CZ-4B R/B 3.5 16:11:14 10° SE 16:16:15 44° ENE 16:21:22 10° N
Meteor 2-5 Rocket 4.0 16:10:43 10° SSE 16:16:18 51° E 16:21:49 10° NNE
Cosmos 2181 Rocket 4.0 16:11:33 10° S 16:17:46 74° E 16:23:55 10° N
Cosmos 1242 Rocket 4.3 16:17:15 10° NE 16:19:09 14° ENE 16:21:03 10° ESE
Cosmos 2366 rocket 4.0 16:15:17 10° N 16:21:23 60° E 16:27:28 10° SSE
Cosmos 1025 Rocket 3.0 16:18:33 10° S 16:22:56 77° E 16:27:19 10° N
NOSS 3-2 (C) 3.8 16:21:42 10° SW 16:27:02 57° NW 16:33:08 10° NNE
ISS -2.5 16:25:39 10° SSW 16:28:31 27° SE 16:30:10 18° E
Cosmos 864 Rocket 4.4 16:22:44 10° N 16:28:54 67° E 16:34:58 10° SSE
ATLAS 3B R/B 4.1 16:26:05 10° SE 16:29:03 13° ESE 16:30:20 13° E
USA 234 4.5 16:23:55 10° NNE 16:29:35 33° NNW 16:35:15 10° W
H-2A R/B 3.9 16:32:28 10° ESE 16:35:38 19° ENE 16:38:48 10° NNE
SeaSat 1 2.6 16:32:11 10° NE 16:37:01 54° ESE 16:41:49 10° S
deb Chang Zheng 4 3.6 16:37:24 10° SSE 16:41:27 49° ENE 16:45:31 10° N
Lacrosse 5 2.3 16:37:02 10° SW 16:42:00 58° NW 16:46:21 14° NNE
USA 276 4.3 16:40:41 10° WNW 16:42:53 17° NNW 16:44:28 13° NNE
Cosmos 2344 4.2 16:36:09 10° S 16:42:57 32° ESE 16:47:08 19° ENE
Cosmos 676 Rocket 4.3 16:39:31 10° SSW 16:44:50 73° WNW 16:50:11 10° NNE
YAOGAN 3 4.5 16:42:09 10° SSE 16:46:28 73° ENE 16:50:50 10° N
Cosmos 1455 Rocket 3.8 16:42:22 10° NNW 16:46:43 55° W 16:51:04 10° S
H-2A R/B 2.9 16:42:26 10° S 16:47:13 51° W 16:52:09 10° NNW
CZ-4C R/B 3.3 16:45:42 22° NE 16:47:32 42° E 16:50:47 10° S
Cosmos 1943 Rocket 2.3 16:43:09 10° S 16:48:33 51° ESE 16:52:50 16° NE
APEX 3.8 16:44:40 10° NNW 16:49:12 68° ENE 16:54:49 10° SSE
GPS 2-04 Rocket1 3.2 16:48:04 10° WSW 16:51:53 49° SSE 16:53:41 27° ESE
SL-4 R/B 4.2 16:51:59 10° N 16:52:46 10° N 16:53:17 10° NNE
Atlas Centaur 2 3.2 16:47:39 10° WSW 16:53:36 39° S 16:57:18 16° ESE
SL-08 R/B 4.4 16:53:32 10° N 16:59:40 64° E 17:05:52 10° SSE
Cosmos 1241 Rocket 4.4 16:54:10 10° NNW 17:00:24 88° WSW 17:06:39 10° SSE
ARGOS 3.5 16:57:21 10° S 17:02:40 68° WSW 17:08:01 10° NNW
CENTAUR R/B 4.2 16:58:53 10° W 17:03:50 26° NW 17:09:32 10° NNE
Cosmos 2082 Rocket 2.1 16:58:31 10° NNW 17:04:10 90° WSW 17:09:49 10° SSE
SL-08 RB Rocket 3.6 17:00:16 10° SSE 17:04:44 86° W 17:09:13 10° NNW
IRIDIUM 103 4.4 17:06:38 10° SSE 17:11:40 53° E 17:16:44 10° NNE
YAOGAN 1 2.4 17:07:55 10° SSE 17:12:12 68° ENE 17:16:30 10° N
Cosmos 1544 Rocket 4.4 17:09:29 10° NNW 17:13:50 52° W 17:18:07 10° S
IRS-1C Rocket 4.4 17:14:00 39° ENE 17:14:15 39° ENE 17:19:07 10° N
Cosmos 2278 Rocket 4.4 17:14:58 10° WSW 17:19:11 21° NW 17:23:26 10° N
NOAA 15 4.4 17:14:28 10° SSE 17:19:42 79° ENE 17:24:58 10° N
Cosmos 1536 Rocket 4.2 17:17:56 10° SSW 17:22:19 57° W 17:26:44 10° N
H-2A R/B 4.2 17:26:26 14° SSE 17:26:26 14° SSE 17:27:01 10° SSE
ATLAS 5 CENTAUR R/B 2.4 17:20:54 10° WSW 17:24:26 39° NW 17:25:56 28° N
Okean O Rocket 2.7 17:21:24 10° S 17:25:33 44° W 17:29:44 10° NNW
DMSP B5D2-2 4.3 17:20:32 10° N 17:25:49 72° WNW 17:31:04 10° SSW
Cosmos 1763 Rocket 3.7 17:24:11 10° NNW 17:29:30 74° WSW 17:34:43 10° S
IRIDIUM 106 4.2 17:24:45 10° S 17:29:57 80° E 17:35:11 10° N
Cosmos 2369 Rocket 2.4 17:27:21 10° S 17:32:23 49° ESE 17:32:23 49° ESE
Cosmos 405 Rocket 4.1 17:30:55 10° SW 17:34:21 36° WNW 17:36:18 21° NNW
CZ-4 R/B 1.7 17:34:40 10° S 17:38:28 61° W 17:42:18 10° NNW
Nadezhda 3 Rocket 4.3 17:34:44 10° SSW 17:40:59 65° W 17:47:14 10° N
Cosmos 1934 Rocket 3.8 17:35:13 10° N 17:41:19 61° E 17:47:18 10° SSE
Cosmos 1242 Rocket 4.5 17:50:47 10° NNW 17:53:57 29° W 17:57:07 10° SSW
Cosmos 540 Rocket 3.5 17:49:57 10° NNW 17:55:07 76° WSW 17:55:15 75° WSW
ISS -0.7 18:02:14 10° W 18:03:08 16° W 18:03:08 16° W
IRAS Rocket 4.4 18:05:31 71° NW 18:05:51 73° WNW 18:11:27 10° SSW
H-2A R/B 4.0 18:06:35 10° SSW 18:10:44 38° W 18:14:57 10° NNW
ATLAS 3B R/B 2.7 18:12:09 10° SSW 18:17:39 67° SSW 18:17:39 67° SSW
Lacrosse 5 4.3 18:23:04 10° WNW 18:25:34 15° NNW 18:25:34 15° NNW
Cosmos 1943 Rocket 4.2 18:28:19 10° WSW 18:32:34 22° NW 18:34:24 19° NNW
Atlas Centaur 2 4.2 18:37:40 10° WSW 18:39:54 18° SW 18:39:54 18° SW
Cosmos 2344 4.3 18:49:55 10° WSW 18:57:00 43° NW 18:57:12 43° NW
